Location: Newark
(5.8900°S, 42.6378°W)
Time: 20:58:17
(UTC+00:00)

Vanguard 2 - Visible Passes

Search period start: 23 October 2019 00:00
Search period end: 02 November 2019 00:00
Orbit: 554 x 2937 km, 32.9° (Epoch: 22 October)

Date Brightness Start Highest point End Pass type
(mag) Time Alt. Az. Time Alt. Az. Time Alt. Az.
23 Oct 10.6 04:19:57 48° ESE 04:19:57 48° ESE 04:28:55 10° ESE visible
23 Oct 10.3 06:21:20 39° WSW 06:26:26 48° SW 06:38:14 10° SE visible
24 Oct 10.3 04:36:34 59° SE 04:36:34 59° SE 04:47:05 10° SE visible
24 Oct 10.5 06:37:57 28° WSW 06:44:48 38° SSW 06:55:54 10° SSE visible
25 Oct 11.7 02:51:43 15° ESE 02:51:43 15° ESE 02:53:30 10° ESE visible
25 Oct 10.2 04:53:05 63° S 04:53:05 63° S 05:05:05 10° SE visible
25 Oct 10.8 06:54:28 19° WSW 07:03:21 30° SSW 07:13:34 10° SSE visible
26 Oct 11.4 03:08:11 22° ESE 03:08:11 22° ESE 03:12:11 10° ESE visible
26 Oct 10.3 05:09:33 57° SSW 05:09:33 57° SSW 05:22:58 10° SE visible
26 Oct 11.0 07:10:55 11° WSW 07:22:08 24° SSW 07:31:16 10° SSE visible
27 Oct 11.2 03:24:34 30° ESE 03:24:34 30° ESE 03:30:35 10° ESE visible
27 Oct 10.5 05:25:55 46° SW 05:27:02 46° SSW 05:40:46 10° SE visible
27 Oct 11.1 07:30:52 10° WSW 07:41:08 20° SSW 07:49:08 10° SSE visible
28 Oct 10.9 03:40:52 38° SE 03:40:52 38° SE 03:48:45 10° SE visible
28 Oct 10.8 05:42:14 35° SW 05:45:40 37° SSW 05:58:34 10° SE visible
28 Oct 11.2 07:51:36 10° SW 08:00:19 17° SSW 08:07:15 10° SSE visible
29 Oct 10.8 03:57:06 44° SSE 03:57:06 44° SSE 04:06:46 10° SE visible
29 Oct 11.0 05:58:27 25° SW 06:04:31 31° SSW 06:16:25 10° SSE visible
29 Oct 11.2 23:32:54 10° NNW 23:33:13 11° NNW 23:33:13 11° NNW visible
30 Oct 11.8 02:11:54 13° ESE 02:11:54 13° ESE 02:13:03 10° ESE visible
30 Oct 10.7 04:13:15 46° S 04:13:15 46° S 04:24:42 10° SE visible
30 Oct 11.2 06:14:36 17° WSW 06:23:35 26° SSW 06:34:25 10° SSE visible
30 Oct 11.2 23:49:54 10° NNW 23:50:15 11° NNW 23:50:15 11° NNW visible
31 Oct 11.6 02:27:59 20° SE 02:27:59 20° SE 02:31:26 10° SE visible
31 Oct 10.8 04:29:20 43° SSW 04:29:20 43° SSW 04:42:36 10° SE visible
31 Oct 11.3 06:30:50 10° WSW 06:42:53 22° SSW 06:52:40 10° SSE visible
31 Oct 10.8 22:04:05 10° NNE 22:05:56 12° NNE 22:05:56 12° NNE visible
01 Nov 11.2 00:07:10 10° NNW 00:07:22 11° NNW 00:07:22 11° NNW visible
01 Nov 11.4 02:44:01 26° SE 02:44:01 26° SE 02:49:36 10° SE visible
01 Nov 10.9 04:45:21 36° SSW 04:46:15 36° SSW 05:00:35 10° SE visible
01 Nov 11.4 06:51:15 10° SW 07:02:20 20° S 07:11:16 10° SE visible
01 Nov 10.6 22:19:19 10° N 22:23:11 17° NNE 22:23:11 17° NNE visible
